Location: Kalberh�ni
(46.4610°N, 7.2453°E)
Time: 04:59:47
(UTC+00:00)

Cosmos 1869 - Pass Details

Date: 20 June 2021
Orbit: 518 x 562 km, 82.5° (Epoch: 28 July)

Event Time Altitude Azimuth Distance (km) Brightness Sun altitude
Rises 23:31:05 0° 355° (N) 2,767 8.5 -20.1°
Reaches altitude 10° 23:33:20 10° 0° (N) 1,864 7.2 -20.1°
Maximum altitude 23:37:21 51° 77° (ENE) 707 3.9 -20.1°
Enters shadow 23:38:23 40° 124° (SE) 833 3.9 -20.1°
